Location: Izdebno
(52.6670°N, 16.2170°E)
Time: 04:47:13
(UTC+02:00)

Transit 2A - Pass Details

Date: 26 February 2024
Orbit: 596 x 956 km, 66.7° (Epoch: 21 April)

Event Time Altitude Azimuth Distance (km) Brightness Sun altitude
Rises 03:44:36 0° 319° (NW) 2,967 - -28.3°
Reaches altitude 10° 03:46:48 10° 318° (NW) 2,094 - -28.0°
Maximum altitude 03:51:32 74° 234° (SW) 742 - -27.4°
Exits shadow 03:54:04 30° 155° (SSE) 1,307 7.2 -27.0°
Drops below altitude 10° 03:56:45 10° 150° (SSE) 2,302 8.5 -26.7°
Sets 03:59:16 0° 149° (SSE) 3,287 9.4 -26.3°
